FW0394 Weather Reports


Display with metric or nautical units.
time (UTC)temp
F
wind
direction
speed
MPH
gust
MPH
rain 1hr
in
rain 24hr
in
rain mn
in
humidity
%
barometer
mb
20260502220003 69 256 5.0 10.0 0.00 0.00 0.00 29 1015.8
20260502215503 69 237 4.0 10.0 0.00 0.00 0.00 28 1015.7
20260502215003 69 215 4.0 9.0 0.00 0.00 0.00 28 1015.8
20260502214503 68 210 4.0 8.0 0.00 0.00 0.00 31 1015.9
20260502214003 68 230 5.0 15.0 0.00 0.00 0.00 27 1015.9
20260502213503 69 232 5.0 15.0 0.00 0.00 0.00 28 1016.2
20260502213003 68 236 5.0 10.0 0.00 0.00 0.00 29 1016.3
20260502212503 68 242 5.0 10.0 0.00 0.00 0.00 29 1016.2
20260502212004 68 234 6.0 16.0 0.00 0.00 0.00 31 1016.4
20260502211503 68 213 6.0 17.0 0.00 0.00 0.00 29 1016.4
20260502211003 68 195 5.0 17.0 0.00 0.00 0.00 27 1016.4
20260502210503 68 219 4.0 13.0 0.00 0.00 0.00 28 1016.5
20260502210213 68 227 5.0 13.0 0.00 0.00 0.00 28 1016.7
20260502205503 68 261 3.0 8.0 0.00 0.00 0.00 32 1016.7
20260502205213 68 258 3.0 8.0 0.00 0.00 0.00 29 1016.9
20260502204503 68 247 3.0 7.0 0.00 0.00 0.00 30 1017.0
20260502204213 68 253 3.0 12.0 0.00 0.00 0.00 34 1017.1
20260502203714 67 254 4.0 12.0 0.00 0.00 0.00 29 1017.2
20260502203003 67 251 5.0 14.0 0.00 0.00 0.00 32 1017.2
20260502202503 67 245 6.0 14.0 0.00 0.00 0.00 28 1017.4
20260502202003 67 232 5.0 13.0 0.00 0.00 0.00 33 1017.4
20260502201504 66 222 4.0 11.0 0.00 0.00 0.00 34 1017.4
20260502201003 66 225 3.0 11.0 0.00 0.00 0.00 29 1017.5
20260502200504 66 222 4.0 10.0 0.00 0.00 0.00 31 1017.5
20260502200008 67 225 4.0 10.0 0.00 0.00 0.00 33 1017.8
20260502195503 67 258 3.0 8.0 0.00 0.00 0.00 32 1017.8
20260502195003 67 268 3.0 10.0 0.00 0.00 0.00 39 1017.9
20260502194503 66 233 3.0 10.0 0.00 0.00 0.00 35 1017.9
20260502194003 66 247 4.0 9.0 0.00 0.00 0.00 38 1018.1
20260502193503 66 250 4.0 11.0 0.00 0.00 0.00 36 1018.2
20260502193003 65 207 3.0 11.0 0.00 0.00 0.00 36 1018.2
20260502192503 65 228 3.0 8.0 0.00 0.00 0.00 38 1018.3
20260502192003 65 237 4.0 10.0 0.00 0.00 0.00 35 1018.5
20260502191503 65 234 4.0 10.0 0.00 0.00 0.00 32 1018.5
20260502191003 65 244 4.0 10.0 0.00 0.00 0.00 33 1018.6
20260502190503 64 269 3.0 11.0 0.00 0.00 0.00 34 1018.7
20260502190004 64 272 4.0 11.0 0.00 0.00 0.00 32 1018.9
20260502185503 64 265 4.0 10.0 0.00 0.00 0.00 36 1018.9
20260502185003 64 265 3.0 7.0 0.00 0.00 0.00 37 1019.0
20260502184003 64 244 3.0 10.0 0.00 0.00 0.00 35 1019.2
20260502183503 64 239 5.0 11.0 0.00 0.00 0.00 40 1019.2
20260502183214 63 242 5.0 11.0 0.00 0.00 0.00 38 1019.4
20260502182503 63 247 3.0 9.0 0.00 0.00 0.00 41 1019.5
20260502182003 62 242 4.0 9.0 0.00 0.00 0.00 41 1019.5
20260502181503 62 239 4.0 12.0 0.00 0.00 0.00 36 1019.6
20260502181003 62 234 4.0 12.0 0.00 0.00 0.00 35 1019.5
20260502180713 62 234 4.0 12.0 0.00 0.00 0.00 38 1019.5
20260502170503 60 313 2.0 7.0 0.00 0.00 0.00 39 1020.5
20260502170213 60 297 2.0 7.0 0.00 0.00 0.00 41 1020.4
20260502164003 59 230 3.0 11.0 0.00 0.00 0.00 43 1020.7
20260502163503 58 239 4.0 11.0 0.00 0.00 0.00 41 1020.6
20260502163003 58 262 3.0 11.0 0.00 0.00 0.00 43 1020.7
20260502162503 58 264 4.0 11.0 0.00 0.00 0.00 42 1020.8
20260502162003 58 253 3.0 10.0 0.00 0.00 0.00 40 1020.7
20260502161503 58 278 2.0 7.0 0.00 0.00 0.00 39 1020.8
20260502161213 58 309 2.0 6.0 0.00 0.00 0.00 42 1020.8
20260502160503 57 274 3.0 11.0 0.00 0.00 0.00 46 1020.8
20260502160213 57 256 3.0 11.0 0.00 0.00 0.00 43 1020.9
20260502151714 53 245 3.0 8.0 0.00 0.00 0.00 47 1021.0
20260502151003 52 241 2.0 7.0 0.00 0.00 0.00 48 1021.0
20260502150503 52 236 3.0 7.0 0.00 0.00 0.00 51 1021.0
20260502130503 39 0 0.0 0.0 0.00 0.00 0.00 76 1021.2
20260502123713 36 0 0.0 0.0 0.00 0.00 0.00 78 1020.9
20260502123003 36 0 0.0 0.0 0.00 0.00 0.00 79 1021.0
20260502122503 35 0 0.0 0.0 0.00 0.00 0.00 79 1020.9
20260502122003 35 0 0.0 0.0 0.00 0.00 0.00 80 1020.9
20260502121712 35 0 0.0 0.0 0.00 0.00 0.00 80 1020.8
20260502121213 35 0 0.0 0.0 0.00 0.00 0.00 80 1020.8
20260502120503 35 0 0.0 0.0 0.00 0.00 0.00 81 1020.8
20260502115713 35 0 0.0 0.0 0.00 0.00 0.00 81 1020.9
20260502115214 34 0 0.0 0.0 0.00 0.00 0.00 80 1020.8
20260502114712 34 0 0.0 0.0 0.00 0.00 0.00 80 1020.8
20260502114003 34 0 0.0 0.0 0.00 0.00 0.00 79 1020.8
20260502113712 34 0 0.0 0.0 0.00 0.00 0.00 79 1020.8
20260502113003 34 0 0.0 0.0 0.00 0.00 0.00 79 1020.8
20260502112503 34 0 0.0 0.0 0.00 0.00 0.00 79 1020.8
20260502112004 35 0 0.0 0.0 0.00 0.00 0.00 79 1020.7
20260502111503 35 0 0.0 0.0 0.00 0.00 0.00 80 1020.8
20260502111003 35 30 0.0 3.0 0.00 0.00 0.00 80 1020.7
20260502110503 35 30 1.0 3.0 0.00 0.00 0.00 81 1020.8
20260502110004 35 30 0.0 2.0 0.00 0.00 0.00 84 1020.8
20260502105503 35 31 0.0 2.0 0.00 0.00 0.00 83 1020.7
20260502105003 34 0 0.0 0.0 0.00 0.00 0.00 80 1020.7
20260502104714 34 0 0.0 0.0 0.00 0.00 0.00 79 1020.7
20260502104003 35 0 0.0 0.0 0.00 0.00 0.00 79 1020.7
20260502103503 35 0 0.0 0.0 0.00 0.00 0.00 79 1020.6
20260502103004 35 0 0.0 0.0 0.00 0.00 0.00 79 1020.7
20260502102503 35 0 0.0 0.0 0.00 0.00 0.00 78 1020.6
20260502102003 35 0 0.0 0.0 0.00 0.00 0.00 78 1020.6
20260502101503 35 0 0.0 0.0 0.00 0.00 0.00 78 1020.5
20260502101213 35 0 0.0 0.0 0.00 0.00 0.00 78 1020.5
20260502100503 35 0 0.0 0.0 0.00 0.00 0.00 78 1020.6
20260502091503 36 0 0.0 0.0 0.00 0.00 0.00 74 1020.3
20260502091003 36 0 0.0 0.0 0.00 0.00 0.00 74 1020.2
20260502090503 37 0 0.0 0.0 0.00 0.00 0.00 74 1020.3
20260502071503 38 0 0.0 0.0 0.00 0.00 0.00 71 1020.4
20260502071003 38 0 0.0 0.0 0.00 0.00 0.00 71 1020.3
20260502070503 39 0 0.0 0.0 0.00 0.00 0.00 70 1020.3
20260502070004 39 0 0.0 0.0 0.00 0.00 0.00 70 1020.4
20260502065713 39 0 0.0 0.0 0.00 0.00 0.00 70 1020.4
20260502065214 39 0 0.0 0.0 0.00 0.00 0.00 69 1020.3
20260502064503 39 0 0.0 0.0 0.00 0.00 0.00 69 1020.2
20260502064003 39 0 0.0 0.0 0.00 0.00 0.00 68 1020.3
20260502063503 40 0 0.0 0.0 0.00 0.00 0.00 68 1020.3
20260502063003 40 0 0.0 0.0 0.00 0.00 0.00 68 1020.4
20260502062503 40 0 0.0 0.0 0.00 0.00 0.00 67 1020.3
20260502062004 40 0 0.0 0.0 0.00 0.00 0.00 66 1020.3
20260502061714 40 0 0.0 0.0 0.00 0.00 0.00 65 1020.2
20260502061003 40 0 0.0 0.0 0.00 0.00 0.00 66 1020.1
20260502060503 40 0 0.0 0.0 0.00 0.00 0.00 65 1020.2
20260502060003 41 0 0.0 0.0 0.00 0.00 0.00 65 1020.1
20260502055714 41 0 0.0 0.0 0.00 0.00 0.00 64 1020.2
20260502055003 41 0 0.0 0.0 0.00 0.00 0.00 63 1020.1
20260502054503 41 0 0.0 0.0 0.00 0.00 0.00 63 1020.1
20260502054003 41 0 0.0 0.0 0.00 0.00 0.00 63 1020.0
20260502053714 41 0 0.0 0.0 0.00 0.00 0.00 62 1019.9
20260502053003 42 0 0.0 0.0 0.00 0.00 0.00 61 1020.0
20260502052503 42 0 0.0 0.0 0.00 0.00 0.00 61 1019.9
20260502052003 42 0 0.0 0.0 0.00 0.00 0.00 60 1019.9
20260502051503 42 0 0.0 0.0 0.00 0.00 0.00 58 1019.9
20260502051003 42 0 0.0 0.0 0.00 0.00 0.00 59 1019.9
20260502050503 42 0 0.0 0.0 0.00 0.00 0.00 59 1019.8
20260502050004 42 0 0.0 0.0 0.00 0.00 0.00 59 1019.8
20260502045503 42 0 0.0 0.0 0.00 0.00 0.00 58 1019.8
20260502045003 42 0 0.0 0.0 0.00 0.00 0.00 58 1019.8
20260502044714 42 0 0.0 0.0 0.00 0.00 0.00 58 1019.7
20260502044003 43 0 0.0 0.0 0.00 0.00 0.00 57 1019.6
20260502043503 43 0 0.0 0.0 0.00 0.00 0.00 57 1019.7
20260502043003 43 0 0.0 0.0 0.00 0.00 0.00 56 1019.7
20260502042503 43 0 0.0 0.0 0.00 0.00 0.00 56 1019.7
20260502042004 44 0 0.0 0.0 0.00 0.00 0.00 55 1019.7
20260502041503 44 0 0.0 0.0 0.00 0.00 0.00 55 1019.7
20260502041003 44 0 0.0 0.0 0.00 0.00 0.00 54 1019.6
20260502040503 44 0 0.0 0.0 0.00 0.00 0.00 54 1019.7
20260502040003 45 0 0.0 0.0 0.00 0.00 0.00 53 1019.6
20260502035713 45 0 0.0 0.0 0.00 0.00 0.00 53 1019.6
20260502035003 45 0 0.0 0.0 0.00 0.00 0.00 52 1019.7
20260502034503 46 0 0.0 0.0 0.00 0.00 0.00 52 1019.6
20260502034003 46 0 0.0 0.0 0.00 0.00 0.00 51 1019.6
20260502033503 46 0 0.0 0.0 0.00 0.00 0.00 51 1019.6
20260502033003 46 0 0.0 0.0 0.00 0.00 0.00 50 1019.6
20260502032713 46 0 0.0 0.0 0.00 0.00 0.00 50 1019.6
20260502032003 47 0 0.0 0.0 0.00 0.00 0.00 48 1019.5
20260502031713 47 0 0.0 0.0 0.00 0.00 0.00 48 1019.5
20260502031003 47 0 0.0 0.0 0.00 0.00 0.00 48 1019.5
20260502030503 48 0 0.0 0.0 0.00 0.00 0.00 47 1019.4
20260502030003 48 0 0.0 0.0 0.00 0.00 0.00 46 1019.4
20260502025503 48 0 0.0 1.0 0.00 0.00 0.00 46 1019.3
20260502025003 49 31 0.0 1.0 0.00 0.00 0.00 45 1019.3
20260502024503 49 31 0.0 1.0 0.00 0.00 0.00 45 1019.2
20260502024003 49 31 0.0 2.0 0.00 0.00 0.00 44 1019.2
20260502023503 49 30 0.0 3.0 0.00 0.00 0.00 44 1019.1
20260502023003 50 30 1.0 3.0 0.00 0.00 0.00 43 1019.1
20260502022503 50 30 1.0 4.0 0.00 0.00 0.00 44 1019.1
20260502022214 50 30 1.0 4.0 0.00 0.00 0.00 43 1019.0
20260502021503 50 30 1.0 3.0 0.00 0.00 0.00 44 1018.9
20260502021003 50 30 1.0 3.0 0.00 0.00 0.00 43 1018.8
20260502020503 50 30 0.0 3.0 0.00 0.00 0.00 47 1018.7
20260502020004 51 28 0.0 2.0 0.00 0.00 0.00 46 1018.7
20260502015503 51 28 0.0 2.0 0.00 0.00 0.00 42 1018.6
20260502015214 51 28 0.0 2.0 0.00 0.00 0.00 43 1018.6
20260502014503 51 22 1.0 4.0 0.00 0.00 0.00 41 1018.5
20260502014004 52 25 1.0 4.0 0.00 0.00 0.00 41 1018.4
20260502013503 52 21 1.0 4.0 0.00 0.00 0.00 40 1018.4
20260502013003 52 355 1.0 3.0 0.00 0.00 0.00 41 1018.3
20260502012504 52 334 0.0 3.0 0.00 0.00 0.00 41 1018.4
20260502012003 53 324 0.0 3.0 0.00 0.00 0.00 41 1018.2
20260502011715 53 322 1.0 3.0 0.00 0.00 0.00 41 1018.3
20260502011003 53 342 1.0 4.0 0.00 0.00 0.00 37 1018.2
20260502010503 53 13 2.0 8.0 0.00 0.00 0.00 37 1018.1
20260502010213 53 14 2.0 8.0 0.00 0.00 0.00 38 1018.1
20260502005503 54 25 3.0 9.0 0.00 0.00 0.00 38 1017.9
20260502005003 54 27 2.0 9.0 0.00 0.00 0.00 36 1017.9
20260502004503 54 14 3.0 10.0 0.00 0.00 0.00 37 1017.9
20260502004004 54 9 2.0 10.0 0.00 0.00 0.00 37 1017.8
20260502003503 55 330 2.0 7.0 0.00 0.00 0.00 36 1017.8
20260502003213 55 317 2.0 8.0 0.00 0.00 0.00 36 1017.7
20260502002714 55 351 3.0 8.0 0.00 0.00 0.00 36 1017.7
20260502002003 55 352 2.0 9.0 0.00 0.00 0.00 34 1017.7
20260502001503 56 318 2.0 7.0 0.00 0.00 0.00 36 1017.7
20260502001004 56 315 2.0 8.0 0.00 0.00 0.00 36 1017.7
20260502000714 56 332 3.0 8.0 0.00 0.00 0.00 34 1017.7
20260502000003 56 336 3.0 9.0 0.00 0.00 0.00 36 1017.7
20260501235503 56 358 2.0 9.0 0.00 0.00 0.00 34 1017.7
20260501235003 56 9 3.0 11.0 0.00 0.00 0.00 35 1017.6
20260501234714 56 14 3.0 11.0 0.00 0.00 0.00 34 1017.6
20260501234003 56 21 2.0 10.0 0.00 0.00 0.00 37 1017.6
20260501233503 56 1 2.0 8.0 0.00 0.00 0.00 35 1017.7
20260501233003 57 328 3.0 9.0 0.00 0.00 0.00 38 1017.7
20260501232503 57 313 3.0 9.0 0.00 0.00 0.00 34 1017.6
20260501232003 57 318 3.0 9.0 0.00 0.00 0.00 35 1017.5
20260501231503 57 336 3.0 12.0 0.00 0.00 0.00 33 1017.5
20260501231004 57 343 3.0 12.0 0.00 0.00 0.00 33 1017.5
20260501230503 57 344 3.0 9.0 0.00 0.00 0.00 33 1017.4
20260501230003 58 349 4.0 12.0 0.00 0.00 0.00 33 1017.6
20260501225503 58 349 4.0 12.0 0.00 0.00 0.00 34 1017.6
20260501225003 59 321 3.0 10.0 0.00 0.00 0.00 32 1017.5
20260501224503 59 302 3.0 10.0 0.00 0.00 0.00 34 1017.5
20260501224212 59 307 3.0 10.0 0.00 0.00 0.00 32 1017.5
20260501223503 59 293 4.0 14.0 0.00 0.00 0.00 32 1017.6
20260501223003 59 344 3.0 11.0 0.00 0.00 0.00 34 1017.6
20260501222503 58 339 4.0 8.0 0.00 0.00 0.00 33 1017.5
20260501222003 59 311 4.0 16.0 0.00 0.00 0.00 30 1017.5
20260501221503 59 297 4.0 16.0 0.00 0.00 0.00 33 1017.5
20260501221003 59 301 4.0 13.0 0.00 0.00 0.00 33 1017.2
20260501220503 59 332 4.0 11.0 0.00 0.00 0.00 35 1017.4